Simultaneous Nadir Overpasses (SNOs) Predictions

Prediction of SNOs between TERRA and METOP-C Satellite Orbit:

Table of predicted SNOs for the next 14.0 days since TLE Epoch: 8/29/2025
Index Date (TERRA) Time (TERRA) Lat,Lon (TERRA) SZA (TERRA ) Date (METOP-C) Time (METOP-C) Lat,Lon (METOP-C) SZA (METOP-C ) Distance(km) Time Diff (sec)
1 08/31/2025 20:38:42 77.14, -28.42 84.39 08/31/2025 20:37:30 77.13, -28.38 84.34 1.16 72
2 08/31/2025 21:27:50 -76.63, 141.01 95.10 08/31/2025 21:27:59 -76.64, 140.93 95.11 2.13 9
3 09/03/2025 10:17:28 -76.87, -52.25 94.40 09/03/2025 10:17:01 -76.86, -52.17 94.41 2.24 27
4 09/03/2025 11:06:35 76.26, 117.41 86.21 09/03/2025 11:07:29 76.26, 117.42 86.26 0.31 54
5 09/05/2025 23:07:08 -77.23, 114.04 93.81 09/05/2025 23:06:06 -77.22, 114.12 93.84 2.25 62
6 09/05/2025 23:56:15 76.64, -76.23 86.79 09/05/2025 23:56:34 76.63, -76.18 86.82 1.65 19
7 09/08/2025 12:45:57 77.13, 89.64 87.27 09/08/2025 12:45:42 77.13, 89.59 87.25 1.43 15
8 09/08/2025 13:35:02 -76.45,-100.38 92.05 09/08/2025 13:36:07 -76.46,-100.43 92.01 1.62 65
9 09/11/2025 01:35:36 77.49,-104.15 87.89 09/11/2025 01:34:47 77.50,-104.25 87.82 2.64 49



Historial Predications of SNOs between TERRA and METOP-C
